Weather History for KISP - July, 2013

Change the Weather History Date:

Thursday, July 11, 2013

  Actual Average Record
Temperature  
Mean Temperature 79 °F 74 °F  
Max Temperature 84 °F 82 °F 93 °F (1988)
Min Temperature 73 °F 66 °F 53 °F (2009)
Degree Days  
Heating Degree Days 0 0  
Month to date heating degree days 0 0  
Since 1 June heating degree days 12 38  
Since 1 July heating degree days 0 0  
Cooling Degree Days 14 9  
Month to date cooling degree days 151 92  
Year to date cooling degree days 352 256  
Since 1 June cooling degree days 320 232  
Growing Degree Days 28 (Base 50)    
Moisture  
Dew Point 71 °F    
Average Humidity 78    
Maximum Humidity 94    
Minimum Humidity 61    
Precipitation  
Precipitation 0.28 in 0.11 in 0.84 in (2003)
Month to date precipitation 0.49 1.10  
Year to date precipitation 23.99 24.83  
Snow  
Snow 0.00 in 0.00 in - ()
Month to date snowfall 0.0 0.0  
Since 1 July snowfall 0.0 0.0  
Snow Depth 0.00 in    
Sea Level Pressure  
Sea Level Pressure 29.84 in    
Wind  
Wind Speed 6 mph (WSW)    
Max Wind Speed 13 mph    
Max Gust Speed 18 mph    
Visibility 8 miles    
Events Rain    
T = Trace of Precipitation, MM = Missing Value Source: NWS Daily Summary

Daily Weather History Graph

Daily Weather History Graph

Search for Another Location

Airport or City:

Trip Planner

Search our weather history database for the weather conditions in past years. The results will help you decide how hot, cold, wet, or windy it might be!

Date:

Astronomy

Jul. 11, 2013 Rise Set
Actual Time 5:30 AM EDT 8:24 PM EDT
Civil Twilight 4:58 AM EDT 8:57 PM EDT
Nautical Twilight 4:16 AM EDT 9:38 PM EDT
Astronomical Twilight 3:29 AM EDT 10:26 PM EDT
Moon 8:48 AM EDT (7/11) 10:02 PM EDT (7/11)
Length of Visible Light 15h 58m
Length of Day
14h 53m
Waxing Crescent, 10% of the Moon is Illuminated
Jul 11
Waxing Crescent
Jul 15
First Quarter
Jul 22
Full
Jul 29
Last Quarter
Aug 6
New

Hourly Weather History & Observations

Time (EDT) Temp. Heat Index Dew Point Humidity Pressure Visibility Wind Dir Wind Speed Gust Speed Precip Events Conditions
12:56 AM 75.0 °F - 72.0 °F 90% 29.81 in 9.0 mi SW 8.1 mph - N/A   Clear
1:56 AM 75.9 °F - 72.0 °F 87% 29.81 in 9.0 mi SW 6.9 mph - N/A   Scattered Clouds
2:47 AM 75.2 °F - 71.6 °F 89% 29.81 in 8.0 mi SSW 9.2 mph - N/A   Partly Cloudy
2:56 AM 75.0 °F - 72.0 °F 90% 29.81 in 8.0 mi SSW 10.4 mph - N/A   Partly Cloudy
3:56 AM 75.9 °F - 73.0 °F 91% 29.80 in 10.0 mi WSW 8.1 mph - N/A   Mostly Cloudy
4:56 AM 75.9 °F - 73.0 °F 91% 29.80 in 10.0 mi SSW 9.2 mph - N/A   Scattered Clouds
5:56 AM 75.0 °F - 71.1 °F 87% 29.81 in 9.0 mi South 9.2 mph - N/A   Overcast
6:56 AM 75.0 °F - 71.1 °F 87% 29.83 in 6.0 mi SSW 12.7 mph - 0.00 in Rain Light Rain
7:56 AM 75.0 °F - 72.0 °F 90% 29.84 in 8.0 mi SW 8.1 mph - 0.02 in   Overcast
8:56 AM 75.9 °F - 72.0 °F 87% 29.84 in 10.0 mi WSW 6.9 mph - N/A   Overcast
9:24 AM 75.2 °F - 71.6 °F 89% 29.84 in 0.8 mi SW 10.4 mph - 0.03 in Rain Heavy Rain
9:32 AM 75.2 °F - 71.6 °F 89% 29.84 in 2.0 mi SSW 11.5 mph - 0.22 in Rain Light Rain
9:41 AM 73.4 °F - 71.6 °F 94% 29.84 in 4.0 mi SW 11.5 mph - 0.22 in   Overcast
9:56 AM 75.0 °F - 72.0 °F 90% 29.84 in 6.0 mi SW 8.1 mph - 0.22 in   Overcast
10:31 AM 75.2 °F - 73.4 °F 94% 29.84 in 6.0 mi WSW 5.8 mph - 0.00 in Rain Light Rain
10:56 AM 77.0 °F - 73.0 °F 88% 29.84 in 7.0 mi West 6.9 mph - 0.00 in Rain Light Rain
11:56 AM 77.0 °F - 72.0 °F 84% 29.85 in 10.0 mi Calm Calm - 0.04 in   Overcast
12:56 PM 79.0 °F - 72.0 °F 79% 29.84 in 10.0 mi NW 6.9 mph - N/A   Overcast
1:56 PM 80.1 °F 83.8 °F 72.0 °F 76% 29.84 in 10.0 mi West 4.6 mph - N/A   Mostly Cloudy
2:56 PM 81.0 °F 83.8 °F 68.0 °F 65% 29.83 in 10.0 mi WNW 4.6 mph - N/A   Overcast
3:56 PM 82.0 °F 85.9 °F 70.0 °F 67% 29.83 in 10.0 mi NNW 8.1 mph - N/A   Overcast
4:56 PM 82.9 °F 85.8 °F 68.0 °F 60% 29.83 in 10.0 mi North 6.9 mph - N/A   Overcast
5:56 PM 84.0 °F 88.4 °F 70.0 °F 63% 29.83 in 10.0 mi Variable 3.5 mph - N/A   Mostly Cloudy
6:56 PM 82.0 °F 84.9 °F 68.0 °F 62% 29.86 in 10.0 mi Variable 5.8 mph - N/A   Mostly Cloudy
7:56 PM 78.1 °F - 68.0 °F 71% 29.86 in 10.0 mi SW 6.9 mph - N/A   Mostly Cloudy
8:56 PM 75.9 °F - 68.0 °F 76% 29.87 in 10.0 mi SW 4.6 mph - N/A   Mostly Cloudy
9:56 PM 75.9 °F - 69.1 °F 79% 29.90 in 10.0 mi NNW 3.5 mph - N/A   Mostly Cloudy
10:56 PM 75.0 °F - 66.0 °F 73% 29.89 in 10.0 mi North 3.5 mph - N/A   Mostly Cloudy
11:56 PM 73.9 °F - 64.9 °F 73% 29.90 in 10.0 mi North 4.6 mph - N/A   Mostly Cloudy